Regional Weather Roundup
Issued by NWS Raleigh/Durham, NC

Home | Current Version | Previous Version | Text Only | Print | Product List | Glossary On
Versions: 1 2 3 4 5 6 7 8 9 10 11 12 13 14 15 16 17 18 19 20 21 22 23 24 25 26 27 28 29 30 31 32 33 34 35 36 37 38 39 40 41 42 43 44 45 46 47 48 49 50
000
ASUS42 KRAH 151510
RWRRAH
NORTH CAROLINA WEATHER ROUNDUP
NATIONAL WEATHER SERVICE RALEIGH NC
1000 AM EST SAT DEC 15 2018

NOTE: "FAIR" INDICATES FEW OR NO CLOUDS BELOW 12,000 FEET WITH NO
SIGNIFICANT WEATHER AND/OR OBSTRUCTIONS TO VISIBILITY.

NCZ001-053-055-056-065-067-151600-
WESTERN NORTH CAROLINA

CITY           SKY/WX    TMP DP  RH WIND       PRES   REMARKS
ASHEVILLE      FOG       42  41  96 CALM      29.95F VSB 1/2
JEFFERSON      RAIN      40  40 100 CALM      29.97S VSB<1/4
MORGANTON      FOG      N/A N/A N/A CALM      30.01F VSB 1/2
HICKORY        FOG       44  44 100 N3        29.97F VSB 1/4
RUTHERFORDTON  CLOUDY    46  46 100 N3        29.98F FOG
MOUNT AIRY     CLOUDY    47  45  91 CALM      30.00R
BOONE          DRZL/FOG  39  39 100 CALM      29.98S VSB 1/2
$$

NCZ021-022-025-041-071-084-088-151600-
CENTRAL NORTH CAROLINA

CITY           SKY/WX    TMP DP  RH WIND       PRES   REMARKS
CHARLOTTE      HVY RAIN  46  46 100 CALM      30.00R VSB 1
GREENSBORO     CLOUDY    45  45 100 NE9       29.96R
WINSTON-SALEM  CLOUDY    47  46  97 NE7       29.98R
RALEIGH-DURHAM CLOUDY    45  44  97 E6        29.99F
FORT BRAGG     CLOUDY    48  48 100 E9        29.92F
FAYETTEVILLE   CLOUDY    50  48  93 NE6       29.93F
BURLINGTON     CLOUDY    46  44  93 NE6       29.95F
LAURINBURG     CLOUDY   N/A N/A N/A SW12      29.99R
$$

NCZ011-015-027-028-043-044-047-080-103-151600-
NORTHEASTERN NORTH CAROLINA

CITY           SKY/WX    TMP DP  RH WIND       PRES   REMARKS
ROCKY MT-WILSO CLOUDY    51  51 100 NW6       30.00S FOG
GREENVILLE     DRIZZLE   64  63  94 SW6       30.00S
WASHINGTON     DRIZZLE   65  64  97 SW5       29.99S
ELIZABETH CITY LGT RAIN  65  63  93 SW5       29.99R FOG
MANTEO         LGT RAIN  61  61  99 S10       30.00S VSB 1/2
CAPE HATTERAS  LGT RAIN  64  63  96 SW6       30.01S FOG
$$

NCZ078-087-090-091-093-098-101-151600-
SOUTHEASTERN NORTH CAROLINA

CITY           SKY/WX    TMP DP  RH WIND       PRES   REMARKS
LUMBERTON      LGT RAIN  63  62  97 SE10      29.94F
GOLDSBORO      CLOUDY    64  64 100 SW5       29.96S
KINSTON        CLOUDY    64  64 100 SW3       29.99S
KENANSVILLE    LGT RAIN  64  63  94 CALM      29.98F FOG
NEW BERN       RAIN      65  65 100 W5        29.99S FOG
CHERRY POINT   NOT AVBL
BEAUFORT       PTSUNNY   67  66  97 S10       29.98F
JACKSONVILLE   LGT RAIN  64  63  96 CALM      29.98F
WILMINGTON     CLOUDY    64  62  93 CALM      29.96F
$$




USA.gov is the U.S. government's official web portal to all federal, state and local government web resources and services.